SCP
2 3 3 3 3 3 3 3 3 3 2 2 2 1 1 1 1 0 0 0 0 0 0 0 0 0 0 0 0 0 0 0 0 0 0 0 0 0 0 0 0 0 0
3 3 3 3 3 3 3 3 3 3 2 2 2 1 1 1 1 0 0 0 0 0 0 0 0 0 0 0 0 0 0 0 0 0 0 0 0 0 0 0 0 0 0
2 2 2 2 3 2 2 2 2 2 2 2 2 1 1 1 0 0 0 0 0 0 0 0 0 0 0 0 0 0 0 0 0 0 0 0 0 0 0 0 0 0 0
1 1 1 1 2 2 2 2 2 2 2 2 2 1 1 1 0 0 0 0 0 0 0 0 0 0 0 0 0 0 0 0 0 0 0 0 0 0 0 0 0 0 0
1 1 1 1 1 1 1 1 1 1 1 1 1 1 1 1 0 0 0 0 0 0 0 0 0 0 0 0 0 0 0 0 0 0 0 0 0 0 0 0 0 0 0
0 0 0 0 0 0 0 1 1 1 1 1 1 1 1 0 0 0 0 0 0 0 0 0 0 0 0 0 0 0 0 0 0 0 0 0 0 0 0 0 0 0 0
0 0 0 0 0 0 0 0 1 1 1 1 1 1 0 0 0 0 0 0 0 0 0 0 0 0 0 0 0 0 0 0 0 0 0 0 0 0 0 0 0 0 0
0 0 0 0 0 0 0 0 0 0 0 0 0 0 0 0 0 0 0 0 0 0 0 0 0 0 0 0 0 0 0 0 0 0 0 0 0 0 0 0 0 0 0
0 0 0 0 0 0 0 0 0 0 0 0 0 0 0 0 0 0 0 0 0 0 0 0 0 0 0 0 0 0 0 0 0 0 0 0 0 0 0 0 0 0 0
0 0 0 0 0 0 0 0 0 0 0 0 0 0 0 0 0 0 0 0 0 0 0 0 0 0 0 0 0 0 0 0 0 0 0 0 0 0 0 0 0 0 0
0 0 0 0 0 0 0 0 0 0 0 0 0 0 0 0 0 0 0 0 0 0 0 0 0 0 0 0 0 0 0 0 0 0 0 0 0 0 0 0 0 0 0
0 0 0 0 0 0 0 0 0 0 0 0 0 0 0 0 0 0 0 0 0 0 0 0 0 0 0 0 0 0 0 0 0 0 0 0 0 0 0 0 0 0 0
0 0 0 0 0 0 0 0 0 0 0 0 0 0 0 0 0 0 0 0 0 0 0 0 0 0 0 0 0 0 0 0 0 0 0 0 0 0 0 0 0 0 0
0 0 0 0 0 0 0 0 0 0 0 0 0 0 0 0 0 0 0 0 0 0 0 0 0 0 0 0 0 0 0 0 0 0 0 0 0 0 0 -0 0 0 0
0 0 0 0 0 0 0 0 0 0 0 0 0 0 0 0 0 0 0 0 0 0 0 0 0 0 0 0 0 0 0 0 0 0 0 0 0 0 0 0 0 0 0
0 0 0 0 0 0 0 0 -0 0 0 0 0 0 -0 -0 0 0 0 0 0 0 0 0 0 0 0 0 0 0 0 0 0 0 0 0 0 0 0 0 0 0 0
0 0 0 0 0 0 0 -0 0 0 0 0 -0 -0 -0 0 0 0 0 0 0 0 0 0 0 0 0 0 0 0 0 0 0 0 0 0 0 0 0 0 0 0 0
0 0 0 0 0 0 0 0 0 0 0 0 0 0 0 0 0 0 0 0 0 0 0 0 0 0 0 0 0 0 0 0 0 0 0 0 0 0 0 0 0 0 0
0 0 0 0 0 0 0 0 0 0 0 0 0 0 0 0 0 0 0 0 0 0 0 0 0 0 0 0 0 0 0 0 0 0 0 0 0 0 0 0 0 0 0
0 0 0 0 0 0 0 0 0 0 0 0 0 0 0 0 0 0 0 0 0 0 0 -0 -0 0 0 0 0 0 0 0 0 0 0 0 0 0 0 0 0 0 0
0 0 0 0 0 0 0 0 0 0 0 0 0 0 0 0 0 0 0 0 0 0 0 -0 -0 0 0 0 0 0 0 0 0 0 0 0 0 0 0 0 0 0 0
0 0 0 0 0 0 0 0 0 0 0 0 0 0 0 0 0 0 0 0 0 0 0 -0 -0 0 0 0 0 0 0 0 0 0 0 0 0 0 0 0 0 0 0
0 0 0 0 0 0 0 0 0 0 0 0 0 0 0 0 0 0 0 0 0 0 0 0 0 0 0 0 0 0 0 0 0 0 0 0 0 0 0 0 0 0 0
0 0 0 0 0 -0 -0 0 0 0 0 0 0 0 0 0 0 0 0 0 0 0 0 0 0 0 0 0 0 0 0 0 0 0 0 0 0 0 0 0 0 0 0
0 0 0 0 0 -0 -0 0 0 0 0 0 0 0 0 0 0 0 0 0 0 0 0 0 0 0 0 0 0 0 0 0 0 0 0 0 0 0 0 0 0 0 0
0 0 0 0 0 0 0 0 0 0 0 0 0 0 0 0 0 0 0 0 0 0 0 0 0 0 0 0 0 0 0 0 0 0 0 0 0 0 0 0 0 0 0
Wind_Speed
5 6 8 7 7 5 7 9 11 10 8 6 6 5 4 4 4 4 4 4 4 4 4 3 3 3 3 3 2 2 2 1 1 2 1 2 2 2 2 2 2 2 2
11 10 11 10 8 7 5 4 7 9 8 6 5 5 6 5 4 4 6 6 6 6 5 5 4 4 4 4 3 2 1 1 1 1 1 0 2 2 3 3 3 3 3
11 11 12 11 10 9 6 4 3 5 6 6 6 6 6 5 4 5 5 7 8 8 7 6 5 5 4 3 3 2 2 1 2 2 2 2 1 0 2 4 4 4 3
12 12 12 11 10 9 8 7 5 5 5 6 7 8 6 5 5 5 6 8 9 9 9 8 7 6 5 5 5 5 3 2 1 2 2 2 1 1 1 2 3 4 5
12 12 12 11 10 9 8 7 7 8 6 5 7 9 8 7 7 7 9 9 8 10 10 8 8 8 7 8 8 7 7 5 4 3 2 3 4 3 1 1 2 3 3
12 12 12 11 11 10 9 8 9 10 8 9 9 9 11 11 10 9 9 7 7 8 10 9 9 9 8 8 8 9 10 8 8 7 6 5 3 3 3 2 1 2 2
11 12 12 12 12 12 11 10 10 11 10 12 11 10 11 11 11 9 9 8 7 7 8 8 8 8 8 8 8 10 10 9 9 8 6 6 5 3 2 3 2 2 2
12 12 12 11 11 12 11 11 13 12 12 12 12 12 11 8 9 10 9 9 8 8 8 9 9 9 9 9 8 8 8 8 8 9 7 6 5 5 4 2 2 2 3
12 12 12 11 12 13 13 13 13 14 13 13 14 13 13 12 12 11 10 9 8 9 10 9 9 9 9 9 8 8 7 7 7 7 7 6 5 5 4 4 3 2 1
12 12 11 11 11 12 13 14 14 14 14 13 13 13 14 13 12 12 12 11 10 9 9 9 9 8 8 8 8 7 7 7 6 5 7 6 4 4 4 4 4 3 2
11 11 11 10 11 12 13 12 13 14 14 13 13 14 13 12 12 11 11 10 9 9 8 8 8 8 7 7 6 6 6 7 6 5 6 5 5 4 4 4 4 3 2
11 10 10 10 11 12 12 12 12 13 12 12 13 13 12 11 11 10 9 8 8 8 7 7 8 8 7 6 6 6 6 5 5 5 5 5 4 5 4 4 4 3 2
11 10 10 10 10 10 10 11 11 11 10 11 11 11 10 10 9 8 7 7 7 7 7 7 7 7 7 6 6 5 5 5 4 4 4 3 4 4 3 3 3 2 2
11 10 10 9 9 10 10 10 10 9 10 10 10 10 9 8 7 7 6 6 6 7 6 6 6 6 6 6 6 5 5 5 4 4 3 2 2 1 2 2 2 2 3
11 11 10 9 9 9 9 8 8 8 8 9 9 8 7 7 7 6 6 5 5 6 5 5 5 5 5 5 5 5 5 5 5 5 4 3 3 2 2 2 2 2 2
11 11 10 10 9 9 8 8 7 7 7 8 8 7 6 6 6 5 5 5 5 5 5 5 5 5 4 7 8 5 4 4 4 4 4 3 4 5 7 8 8 5 3
11 10 9 8 8 7 7 7 6 6 7 6 6 5 5 5 4 4 5 4 3 4 4 4 4 3 4 7 9 9 4 4 3 3 3 3 2 4 4 7 9 8 9
10 9 8 7 6 6 6 6 6 6 6 5 5 4 4 4 4 4 4 3 2 3 2 2 2 2 3 6 8 9 5 4 4 3 2 2 3 3 4 5 6 6 6
9 8 7 7 6 5 5 6 6 6 5 5 5 4 5 4 4 3 2 1 2 2 2 2 2 2 2 5 7 7 4 4 5 5 4 3 3 6 6 5 6 7 7
8 8 7 6 6 5 5 6 6 6 5 5 5 4 4 4 3 2 1 1 2 2 2 2 1 2 1 3 6 6 3 4 4 5 5 6 6 8 8 4 4 6 7
9 8 7 6 4 5 6 7 6 5 4 5 4 4 3 3 2 1 1 1 1 2 2 2 1 1 1 3 6 6 2 2 4 4 5 5 11 12 11 6 4 7 7
8 8 7 5 4 5 6 6 4 4 4 4 4 3 2 1 2 3 2 3 3 3 2 2 2 1 2 3 6 8 7 4 2 4 5 7 13 12 10 6 6 8 6
8 7 7 6 4 4 5 5 3 4 4 4 3 2 2 3 3 3 4 4 4 3 2 2 2 1 2 4 7 8 9 8 3 4 9 11 11 9 7 8 9 6 3
7 6 7 6 4 4 4 4 3 4 4 4 2 2 3 3 3 3 3 3 3 3 3 2 2 1 2 3 4 4 5 7 6 6 8 10 9 8 7 7 6 4 3
5 6 6 6 5 4 3 3 3 4 4 3 2 2 2 3 3 3 2 3 2 2 3 2 1 1 1 3 5 4 5 5 4 5 4 4 5 6 6 5 5 5 5
6 6 6 5 5 4 4 3 3 4 3 1 1 1 2 2 3 3 2 3 2 2 3 3 2 1 3 5 7 8 9 8 5 2 3 3 4 4 4 5 5 5 5
Wind_Direction
59 79 89 101 113 123 141 153 153 151 149 149 145 136 131 118 101 88 79 81 82 87 93 94 79 73 80 83 89 108 89 58 81 89 46 22 31 54 60 68 81 74 68
56 59 65 72 82 87 93 123 141 149 150 152 147 132 119 101 91 83 69 62 65 66 74 77 78 73 79 68 56 72 105 64 53 124 122 354 2 27 36 38 52 52 49
66 62 61 60 73 75 61 70 94 121 128 130 124 115 104 97 87 73 64 57 63 65 68 70 75 72 74 71 53 49 85 105 40 52 125 155 216 326 33 33 36 34 40
59 58 57 53 56 64 70 58 52 74 97 119 130 127 120 114 97 89 80 66 59 59 59 60 62 64 65 62 52 49 52 80 66 38 42 72 93 132 89 36 28 32 36
58 53 51 52 51 53 63 73 67 60 55 84 115 118 112 107 104 99 89 75 61 58 59 58 61 59 60 59 57 56 56 57 60 51 37 43 39 37 84 69 16 19 22
65 59 55 52 50 51 56 58 68 69 64 69 82 103 113 115 112 105 96 83 71 62 60 63 63 62 61 62 63 63 63 64 66 62 55 55 52 36 52 67 37 12 1
70 63 58 52 49 50 55 59 70 74 71 72 74 85 96 102 103 103 97 92 80 69 59 64 66 65 63 64 67 68 65 62 64 64 61 57 52 38 54 69 43 25 358
71 67 60 56 53 52 55 63 71 71 72 77 77 78 84 90 90 89 92 90 87 80 72 70 69 68 67 67 65 66 64 63 63 62 60 58 47 41 43 57 68 45 11
72 69 64 58 56 57 59 64 71 72 73 77 79 78 81 84 87 87 86 86 87 86 77 72 70 65 63 62 63 64 60 61 59 58 59 57 45 43 41 45 61 96 58
76 72 67 63 61 63 64 64 69 73 73 74 79 82 80 82 86 87 85 84 81 79 79 75 71 66 62 62 65 63 58 60 54 58 59 53 44 40 35 40 41 55 105
85 80 76 70 69 68 69 70 70 72 73 75 80 82 82 84 84 84 84 84 81 77 74 74 73 67 61 56 61 61 61 61 53 51 57 52 48 43 32 35 39 38 62
92 88 85 80 75 73 72 72 73 75 76 79 82 83 83 84 84 83 81 81 81 78 76 73 70 65 58 51 54 58 56 59 55 47 49 41 45 39 31 35 33 27 38
100 93 89 86 85 83 82 81 80 81 82 84 85 84 83 82 83 83 82 82 82 78 74 72 68 61 54 49 45 50 48 46 43 40 43 38 46 33 23 31 24 2 5
104 100 94 91 89 87 87 88 87 88 89 88 87 86 85 85 85 83 81 80 81 81 80 76 71 64 54 46 37 40 39 31 23 20 24 26 35 37 12 6 350 340 342
112 109 105 100 97 95 93 93 94 93 94 93 91 90 89 86 83 80 78 77 81 89 90 82 70 62 56 43 41 32 33 24 12 7 6 4 29 41 7 347 323 325 320
118 116 114 112 109 108 107 105 102 100 99 99 99 96 92 89 85 84 80 78 78 80 82 80 76 62 50 38 38 39 31 18 13 2 354 354 27 17 6 354 342 331 300
124 122 119 116 115 114 115 114 112 107 103 103 102 99 97 94 93 92 81 78 79 85 91 93 87 69 33 31 27 29 37 19 3 351 349 352 6 4 347 339 340 334 322
128 125 120 112 107 109 113 115 115 114 113 110 109 106 101 98 94 87 82 80 91 107 119 116 110 84 28 27 25 27 32 21 5 354 344 328 316 324 336 330 329 319 309
127 124 122 120 117 118 119 112 109 111 113 115 115 115 112 106 98 92 87 95 104 113 137 142 136 109 9 17 26 34 20 13 359 350 346 325 302 305 326 330 325 322 316
123 123 121 115 115 116 112 109 112 112 119 127 128 126 122 119 119 125 121 114 124 135 137 132 143 133 42 1 19 31 25 8 349 338 333 324 311 309 316 306 305 312 308
124 123 119 118 121 117 108 109 115 124 135 129 121 118 121 132 134 110 81 92 92 94 101 107 90 96 53 1 8 16 22 349 333 326 321 313 317 317 315 302 260 267 283
126 124 119 115 114 115 113 114 126 139 128 119 116 115 114 111 104 86 57 56 71 78 74 83 60 16 7 14 9 12 10 0 319 308 307 308 317 322 328 328 311 310 312
131 127 124 120 116 119 122 127 143 130 119 114 117 118 96 73 85 90 77 62 61 73 70 82 81 20 2 359 9 10 2 359 342 302 305 314 328 341 343 342 347 351 348
133 130 128 128 135 137 131 140 142 131 125 124 120 110 98 82 72 80 92 90 80 77 76 82 85 40 351 346 348 346 341 343 342 332 325 334 351 4 356 351 351 350 339
128 129 134 142 150 146 145 150 138 124 120 128 136 138 134 130 110 87 83 107 117 152 142 144 145 127 324 309 326 327 321 320 316 327 340 359 358 358 352 347 346 348 356
131 133 142 150 159 157 163 168 152 137 134 135 148 171 163 151 139 124 74 50 120 110 119 150 166 245 261 300 323 327 326 326 324 6 3 348 349 349 347 345 344 347 348